| time (UTC) | temp F | wind direction | speed MPH | gust MPH | rain 1hr in | rain 24hr in | rain mn in | humidity % | barometer mb |
| 20260507041548 | 48 | 0 | 0.0 | 0.0 | 0.00 | 0.51 | 0.00 | 75 | 1016.1 |
| 20260507040046 | 50 | 0 | 0.0 | 1.0 | 0.00 | 0.51 | 0.00 | 75 | 1016.0 |
| 20260507034547 | 50 | 0 | 0.0 | 1.0 | 0.00 | 0.52 | 0.51 | 75 | 1015.9 |
| 20260507033049 | 51 | 359 | 1.0 | 3.0 | 0.00 | 0.52 | 0.51 | 72 | 1015.8 |
| 20260507031550 | 51 | 360 | 2.0 | 5.0 | 0.00 | 0.52 | 0.51 | 70 | 1015.8 |
| 20260507030050 | 52 | 1 | 1.0 | 3.0 | 0.00 | 0.52 | 0.51 | 70 | 1015.9 |
| 20260507024603 | 52 | 354 | 1.0 | 3.0 | 0.00 | 0.52 | 0.51 | 71 | 1015.9 |
| 20260507023055 | 52 | 12 | 0.0 | 0.0 | 0.00 | 0.52 | 0.51 | 70 | 1015.8 |
| 20260507021555 | 53 | 0 | 0.0 | 0.0 | 0.00 | 0.52 | 0.51 | 69 | 1015.7 |
| 20260507020104 | 53 | 0 | 0.0 | 0.0 | 0.00 | 0.52 | 0.51 | 69 | 1015.9 |
| 20260507014605 | 54 | 0 | 0.0 | 2.0 | 0.00 | 0.54 | 0.51 | 66 | 1015.4 |
| 20260507013050 | 54 | 28 | 1.0 | 3.0 | 0.00 | 0.54 | 0.51 | 66 | 1015.4 |
| 20260507011548 | 54 | 333 | 3.0 | 6.0 | 0.00 | 0.54 | 0.51 | 66 | 1015.3 |
| 20260507010050 | 54 | 344 | 1.0 | 5.0 | 0.00 | 0.54 | 0.51 | 68 | 1015.0 |
| 20260507004549 | 55 | 336 | 3.0 | 5.0 | 0.00 | 0.58 | 0.51 | 67 | 1015.0 |
| 20260507003047 | 55 | 334 | 1.0 | 5.0 | 0.00 | 0.58 | 0.51 | 67 | 1015.0 |
| 20260507001553 | 55 | 335 | 3.0 | 6.0 | 0.00 | 0.58 | 0.51 | 66 | 1014.6 |
| 20260507000053 | 56 | 328 | 3.0 | 9.0 | 0.00 | 0.58 | 0.51 | 64 | 1014.1 |
| 20260506234556 | 56 | 338 | 3.0 | 8.0 | 0.00 | 0.61 | 0.51 | 63 | 1013.9 |
| 20260506233048 | 56 | 351 | 3.0 | 8.0 | 0.00 | 0.61 | 0.51 | 63 | 1013.5 |
| 20260506231557 | 57 | 349 | 3.0 | 11.0 | 0.00 | 0.61 | 0.51 | 64 | 1013.6 |
| 20260506230056 | 57 | 337 | 3.0 | 11.0 | 0.00 | 0.61 | 0.51 | 62 | 1013.6 |
| 20260506224552 | 58 | 10 | 5.0 | 8.0 | 0.00 | 0.61 | 0.51 | 63 | 1013.6 |
| 20260506223054 | 58 | 321 | 3.0 | 7.0 | 0.00 | 0.61 | 0.51 | 60 | 1013.8 |
| 20260506221551 | 58 | 307 | 2.0 | 7.0 | 0.00 | 0.61 | 0.51 | 62 | 1013.9 |
| 20260506220055 | 58 | 326 | 3.0 | 5.0 | 0.00 | 0.61 | 0.51 | 60 | 1014.1 |
| 20260506214550 | 59 | 321 | 3.0 | 8.0 | 0.00 | 0.61 | 0.51 | 59 | 1013.6 |
| 20260506213104 | 59 | 338 | 4.0 | 9.0 | 0.00 | 0.61 | 0.51 | 57 | 1013.6 |
| 20260506211605 | 59 | 343 | 3.0 | 6.0 | 0.00 | 0.61 | 0.51 | 57 | 1013.6 |
| 20260506210100 | 59 | 34 | 2.0 | 8.0 | 0.00 | 0.61 | 0.51 | 57 | 1013.3 |
| 20260506204558 | 60 | 303 | 3.0 | 7.0 | 0.00 | 0.61 | 0.51 | 58 | 1013.5 |
| 20260506203052 | 60 | 14 | 2.0 | 8.0 | 0.00 | 0.61 | 0.51 | 58 | 1013.3 |
| 20260506201601 | 59 | 346 | 4.0 | 11.0 | 0.00 | 0.61 | 0.51 | 59 | 1013.4 |
| 20260506200058 | 59 | 340 | 3.0 | 11.0 | 0.00 | 0.61 | 0.51 | 61 | 1013.7 |
| 20260506194558 | 59 | 10 | 4.0 | 9.0 | 0.00 | 0.61 | 0.51 | 60 | 1013.7 |
| 20260506193046 | 60 | 313 | 5.0 | 13.0 | 0.00 | 0.61 | 0.51 | 60 | 1013.5 |
| 20260506191552 | 60 | 327 | 2.0 | 9.0 | 0.00 | 0.61 | 0.51 | 60 | 1013.4 |
| 20260506190055 | 59 | 56 | 2.0 | 10.0 | 0.00 | 0.61 | 0.51 | 64 | 1013.3 |
| 20260506184604 | 60 | 323 | 3.0 | 8.0 | 0.00 | 0.61 | 0.51 | 62 | 1013.3 |
| 20260506183100 | 59 | 24 | 4.0 | 9.0 | 0.00 | 0.61 | 0.51 | 64 | 1013.2 |
| 20260506181551 | 58 | 348 | 4.0 | 8.0 | 0.00 | 0.61 | 0.51 | 64 | 1013.5 |
| 20260506180052 | 58 | 358 | 2.0 | 11.0 | 0.00 | 0.61 | 0.51 | 70 | 1013.6 |
| 20260506174551 | 57 | 20 | 4.0 | 14.0 | 0.00 | 0.61 | 0.51 | 71 | 1013.5 |
| 20260506173052 | 58 | 39 | 5.0 | 11.0 | 0.00 | 0.61 | 0.51 | 69 | 1013.6 |
| 20260506171553 | 57 | 302 | 4.0 | 10.0 | 0.00 | 0.61 | 0.51 | 69 | 1013.7 |
| 20260506170108 | 56 | 5 | 3.0 | 9.0 | 0.00 | 0.61 | 0.51 | 73 | 1013.7 |
| 20260506164551 | 56 | 43 | 4.0 | 8.0 | 0.00 | 0.61 | 0.51 | 76 | 1013.7 |
| 20260506163058 | 55 | 294 | 2.0 | 9.0 | 0.00 | 0.61 | 0.51 | 75 | 1013.8 |
| 20260506161550 | 54 | 25 | 3.0 | 7.0 | 0.00 | 0.61 | 0.51 | 80 | 1013.8 |
| 20260506160048 | 54 | 298 | 3.0 | 10.0 | 0.00 | 0.61 | 0.51 | 81 | 1013.5 |
| 20260506154552 | 52 | 298 | 4.0 | 8.0 | 0.00 | 0.61 | 0.51 | 83 | 1013.4 |
| 20260506153047 | 52 | 347 | 3.0 | 6.0 | 0.00 | 0.61 | 0.51 | 84 | 1013.5 |
| 20260506151549 | 52 | 314 | 3.0 | 7.0 | 0.00 | 0.61 | 0.51 | 86 | 1013.4 |
| 20260506150049 | 52 | 23 | 3.0 | 9.0 | 0.00 | 0.61 | 0.51 | 86 | 1013.1 |
| 20260506144559 | 51 | 6 | 3.0 | 8.0 | 0.00 | 0.61 | 0.51 | 87 | 1012.8 |
| 20260506143045 | 50 | 39 | 2.0 | 8.0 | 0.00 | 0.61 | 0.51 | 89 | 1012.6 |
| 20260506141545 | 49 | 51 | 5.0 | 8.0 | 0.00 | 0.61 | 0.51 | 90 | 1012.4 |
| 20260506140058 | 48 | 338 | 4.0 | 8.0 | 0.00 | 0.61 | 0.51 | 91 | 1012.1 |
| 20260506134556 | 47 | 28 | 5.0 | 10.0 | 0.00 | 0.61 | 0.51 | 91 | 1012.4 |
| 20260506133053 | 47 | 333 | 4.0 | 9.0 | 0.00 | 0.61 | 0.51 | 91 | 1012.4 |
| 20260506131600 | 47 | 289 | 2.0 | 10.0 | 0.00 | 0.61 | 0.51 | 92 | 1012.3 |
| 20260506130100 | 47 | 328 | 4.0 | 11.0 | 0.00 | 0.61 | 0.51 | 92 | 1011.5 |
| 20260506124557 | 46 | 316 | 4.0 | 8.0 | 0.00 | 0.61 | 0.51 | 92 | 1011.5 |
| 20260506123053 | 46 | 342 | 3.0 | 11.0 | 0.00 | 0.61 | 0.51 | 92 | 1011.8 |
| 20260506121557 | 46 | 323 | 5.0 | 9.0 | 0.00 | 0.61 | 0.51 | 92 | 1011.1 |
| 20260506120056 | 46 | 287 | 3.0 | 8.0 | 0.00 | 0.61 | 0.51 | 92 | 1010.8 |
| 20260506114552 | 46 | 338 | 5.0 | 9.0 | 0.00 | 0.61 | 0.51 | 92 | 1010.4 |
| 20260506113055 | 46 | 326 | 3.0 | 8.0 | 0.00 | 0.61 | 0.51 | 92 | 1009.9 |
| 20260506111552 | 46 | 321 | 5.0 | 8.0 | 0.00 | 0.61 | 0.51 | 92 | 1009.5 |
| 20260506110054 | 46 | 325 | 3.0 | 6.0 | 0.00 | 0.61 | 0.51 | 92 | 1009.2 |
| 20260506104550 | 47 | 1 | 3.0 | 10.0 | 0.00 | 0.61 | 0.51 | 92 | 1009.0 |
| 20260506103052 | 47 | 349 | 6.0 | 11.0 | 0.00 | 0.61 | 0.51 | 92 | 1008.8 |
| 20260506101551 | 47 | 360 | 4.0 | 11.0 | 0.00 | 0.61 | 0.51 | 92 | 1008.9 |
| 20260506100050 | 47 | 321 | 5.0 | 12.0 | 0.01 | 0.61 | 0.51 | 92 | 1008.8 |
| 20260506094601 | 47 | 313 | 7.0 | 14.0 | 0.01 | 0.61 | 0.51 | 92 | 1008.7 |
| 20260506093053 | 48 | 5 | 5.0 | 16.0 | 0.02 | 0.61 | 0.51 | 92 | 1008.1 |
| 20260506091552 | 49 | 20 | 7.0 | 14.0 | 0.03 | 0.61 | 0.51 | 91 | 1008.3 |
| 20260506090054 | 54 | 341 | 7.0 | 13.0 | 0.04 | 0.60 | 0.50 | 90 | 1007.5 |
| 20260506084602 | 57 | 326 | 0.0 | 1.0 | 0.08 | 0.60 | 0.50 | 93 | 1007.3 |
| 20260506083050 | 57 | 158 | 0.0 | 2.0 | 0.10 | 0.58 | 0.49 | 93 | 1007.1 |
| 20260506081547 | 57 | 0 | 0.0 | 3.0 | 0.12 | 0.58 | 0.48 | 93 | 1007.3 |
| 20260506073059 | 57 | 0 | 0.0 | 1.0 | 0.12 | 0.48 | 0.38 | 92 | 1007.0 |
| 20260506071557 | 57 | 0 | 0.0 | 1.0 | 0.13 | 0.46 | 0.36 | 92 | 1007.1 |
| 20260506061601 | 58 | 0 | 0.0 | 3.0 | 0.22 | 0.33 | 0.23 | 92 | 1007.6 |
| 20260506050107 | 58 | 224 | 1.0 | 8.0 | 0.00 | 0.10 | 0.00 | 92 | 1008.1 |
| 20260506044551 | 58 | 164 | 1.0 | 12.0 | 0.00 | 0.10 | 0.00 | 92 | 1008.6 |
| 20260506043055 | 58 | 0 | 0.0 | 1.0 | 0.01 | 0.10 | 0.00 | 92 | 1008.3 |